Flight Track Log - Related Links

Times and Time Zones

All times are in EDT time to prevent confusion due to time zone crossing. See the BOE236 flight status page for this flight to view local times or setup timezone preferences in your user account.

Time Position Orientation Groundspeed Altitude Reporting Facility
EDT Latitude Longitude Course Direction KTS MPH feet Rate Location/Type
Tue 07:15:49 PM 47.4243 -122.1682 164° South 256 295 3,500  Level FlightAware ADS-B
Tue 07:16:13 PM 47.3983 -122.1572 172° South 256 295 5,400 3,319 Climbing Seattle Center
Tue 07:16:36 PM 47.3681 -122.1511 193° South 260 299 6,100 276 Climbing Seattle Center
Tue 07:17:40 PM 47.2992 -122.1751 250° West 255 293 5,800 -207 Descending FlightAware ADS-B
Tue 07:18:03 PM 47.2898 -122.2125 276° West 255 293 5,800 706 Level FlightAware ADS-B
Tue 07:18:48 PM 47.2957 -122.2946 286° West 260 299 6,600 750 Climbing FlightAware ADS-B
Tue 07:19:23 PM 47.3075 -122.3549 279° West 262 302 6,800 240 Climbing FlightAware ADS-B
Tue 07:19:38 PM 47.3100 -122.3777 277° West 257 296 6,800  Level FlightAware ADS-B
Tue 07:20:08 PM 47.3138 -122.4255 280° West 250 288 6,800 277 Level FlightAware ADS-B
Tue 07:20:43 PM 47.3216 -122.4894 281° West 264 304 7,100 1,527 Climbing FlightAware ADS-B
Tue 07:21:03 PM 47.3266 -122.5265 281° West 265 305 8,200 3,300 Climbing FlightAware ADS-B
Tue 07:21:23 PM 47.3312 -122.5615 279° West 271 312 9,300 2,100 Climbing FlightAware ADS-B
Tue 07:22:03 PM 47.3388 -122.6323 262° West 273 314 10,300 1,350 Climbing FlightAware ADS-B
Tue 07:22:43 PM 47.3322 -122.7041 253° West 278 320 11,100 1,286 Climbing FlightAware ADS-B
Tue 07:23:13 PM 47.3197 -122.7634 252° West 278 320 11,800 1,091 Climbing FlightAware ADS-B
Tue 07:23:49 PM 47.3050 -122.8314 254° West 276 318 12,300 1,114 Climbing FlightAware ADS-B
Tue 07:24:23 PM 47.2930 -122.8911 240° Southwest 279 321 13,100 1,219 Climbing FlightAware ADS-B
Tue 07:24:53 PM 47.2705 -122.9493 246° West 326 375 13,600 2,571 Climbing FlightAware ADS-B
Tue 07:25:33 PM 47.2449 -123.0339 247° West 338 389 16,100 4,320 Climbing FlightAware ADS-B
Tue 07:26:08 PM 47.2251 -123.1033 245° Southwest 326 375 19,000 4,371 Climbing FlightAware ADS-B
Tue 07:26:43 PM 47.2031 -123.1731 244° Southwest 327 376 21,200 3,686 Climbing FlightAware ADS-B
Tue 07:27:18 PM 47.1795 -123.2432 244° Southwest 328 377 23,300 3,343 Climbing FlightAware ADS-B
Tue 07:27:53 PM 47.1554 -123.3169 245° Southwest 330 380 25,100 2,789 Climbing FlightAware ADS-B
Tue 07:28:29 PM 47.1317 -123.3903 231° Southwest 346 398 26,600 2,609 Climbing FlightAware ADS-B
Tue 07:28:39 PM 47.1224 -123.4071 213° Southwest 355 409 27,100 3,000 Climbing FlightAware ADS-B
Tue 07:28:49 PM 47.1080 -123.4210 195° South 372 428 27,600 2,000 Climbing FlightAware ADS-B
Tue 07:29:03 PM 47.0853 -123.4298 188° South 391 450 27,900 480 Climbing FlightAware ADS-B
Tue 07:29:39 PM 47.0169 -123.4444 190° South 390 449 28,000 1,268 Climbing FlightAware ADS-B
Tue 07:30:14 PM 46.9526 -123.4618 190° South 394 453 29,400 1,846 Climbing FlightAware ADS-B
Tue 07:30:44 PM 46.8987 -123.4760 190° South 410 472 30,000 1,565 Climbing FlightAware ADS-B
Tue 07:31:23 PM 46.8282 -123.4948 191° South 411 473 31,200 1,760 Climbing FlightAware ADS-B
Tue 07:31:59 PM 46.7573 -123.5150 191° South 426 490 32,200 2,000 Climbing FlightAware ADS-B
Tue 07:32:29 PM 46.6983 -123.5317 190° South 423 487 33,400 2,609 Climbing FlightAware ADS-B
Tue 07:33:08 PM 46.6265 -123.5493 190° South 409 471 35,200 2,240 Climbing FlightAware ADS-B
Tue 07:33:44 PM 46.5571 -123.5675 191° South 407 468 36,200 1,636 Climbing FlightAware ADS-B
Tue 07:34:14 PM 46.5019 -123.5826 191° South 408 470 37,000 1,565 Climbing FlightAware ADS-B
Tue 07:34:53 PM 46.4344 -123.6008 188° South 406 467 38,000 1,440 Climbing FlightAware ADS-B
Tue 07:35:29 PM 46.3639 -123.6147 189° South 409 471 38,800 1,099 Climbing FlightAware ADS-B
Tue 07:36:04 PM 46.2966 -123.6308 190° South 406 467 39,300 738 Climbing FlightAware ADS-B
Tue 07:36:34 PM 46.2402 -123.6455 190° South 412 474 39,600 1,029 Climbing FlightAware ADS-B
Tue 07:37:14 PM 46.1641 -123.6657 190° South 409 471 40,500 1,120 Climbing FlightAware ADS-B
Tue 07:37:49 PM 46.0983 -123.6827 190° South 407 468 41,000 455 Climbing FlightAware ADS-B
Tue 07:38:20 PM 46.0420 -123.6973 190° South 409 471 41,000  Level FlightAware ADS-B
Tue 07:38:54 PM 45.9745 -123.7146 190° South 410 472 41,000  Level FlightAware ADS-B
Tue 07:39:34 PM 45.8993 -123.7336 190° South 410 472 41,000  Level FlightAware ADS-B
Tue 07:40:14 PM 45.8224 -123.7529 190° South 411 473 41,000  Level FlightAware ADS-B
Tue 07:40:50 PM 45.7683 -123.7665 190° South 411 473 41,000  Level FlightAware ADS-B
Tue 07:41:24 PM 45.6900 -123.7864 190° South 411 473 41,000  Level FlightAware ADS-B
Tue 07:42:00 PM 45.6268 -123.8022 190° South 411 473 41,000  Level FlightAware ADS-B
Tue 07:42:34 PM 45.5557 -123.8196 190° South 409 471 41,000  Level FlightAware ADS-B
Tue 07:43:04 PM 45.5051 -123.8317 190° South 411 473 41,000  Level FlightAware ADS-B
Tue 07:43:44 PM 45.4238 -123.8514 190° South 410 472 41,000  Level FlightAware ADS-B
Tue 07:44:24 PM 45.3471 -123.8713 190° South 409 471 41,000  Level FlightAware ADS-B
Tue 07:45:04 PM 45.2775 -123.8895 190° South 411 473 41,000  Level FlightAware ADS-B
Tue 07:45:34 PM 45.2144 -123.9054 188° South 421 484 41,000  Level FlightAware ADS-B
Tue 07:46:14 PM 45.1384 -123.9201 191° South 408 470 41,000  Level FlightAware ADS-B
Tue 07:46:50 PM 45.0779 -123.9369 193° South 414 476 41,000  Level FlightAware ADS-B
Tue 07:47:20 PM 45.0125 -123.9575 192° South 416 479 41,000  Level FlightAware ADS-B
Tue 07:47:54 PM 44.9514 -123.9753 187° South 412 474 41,000  Level FlightAware ADS-B
Tue 07:48:34 PM 44.8729 -123.9894 188° South 422 486 41,000  Level FlightAware ADS-B
Tue 07:49:10 PM 44.7994 -124.0048 189° South 439 505 41,000  Level FlightAware ADS-B
Tue 07:49:40 PM 44.7380 -124.0185 170° South 435 501 41,000  Level FlightAware ADS-B
Tue 07:50:00 PM 44.6972 -124.0083 146° Southeast 452 520 41,000  Level FlightAware ADS-B
Tue 07:50:30 PM 44.6451 -123.9589 126° Southeast 469 540 41,000  Level FlightAware ADS-B
Tue 07:50:54 PM 44.6119 -123.8954 105° East 493 567 41,000  Level FlightAware ADS-B
Tue 07:51:30 PM 44.5911 -123.7830 96° East 502 578 41,000  Level FlightAware ADS-B
Tue 07:52:00 PM 44.5840 -123.6866 87° East 507 583 41,000  Level FlightAware ADS-B
Tue 07:52:34 PM 44.5887 -123.5750 86° East 507 583 41,000  Level FlightAware ADS-B
Tue 07:53:14 PM 44.5950 -123.4439 87° East 507 583 41,000  Level FlightAware ADS-B
Tue 07:53:44 PM 44.5987 -123.3452 87° East 505 581 41,000 -269 Level FlightAware ADS-B
Tue 07:54:21 PM 44.6023 -123.2287 88° East 502 578 40,700 -1,105 Descending FlightAware ADS-B
Tue 07:55:00 PM 44.6058 -123.1001 88° East 491 565 39,600 -1,808 Descending FlightAware ADS-B
Tue 07:55:34 PM 44.6087 -122.9925 88° East 488 562 38,500 -1,875 Descending FlightAware ADS-B
Tue 07:56:04 PM 44.6110 -122.8986 88° East 484 557 37,600 -1,714 Descending FlightAware ADS-B
Tue 07:56:44 PM 44.6139 -122.7730 88° East 473 544 36,500 -1,558 Descending FlightAware ADS-B
Tue 07:57:21 PM 44.6165 -122.6666 88° East 465 535 35,600 -1,636 Descending FlightAware ADS-B
Tue 07:57:50 PM 44.6186 -122.5768 88° East 458 527 34,700 -1,714 Descending FlightAware ADS-B
Tue 07:58:31 PM 44.6216 -122.4597 88° East 449 517 33,600 -2,175 Descending FlightAware ADS-B
Tue 07:59:10 PM 44.6245 -122.3483 88° East 424 488 31,800 -3,123 Descending FlightAware ADS-B
Tue 07:59:44 PM 44.6265 -122.2537 89° East 422 486 29,800 -4,406 Descending FlightAware ADS-B
Tue 08:00:14 PM 44.6278 -122.1685 89° East 463 533 27,100 -4,457 Descending FlightAware ADS-B
Tue 08:00:54 PM 44.6295 -122.0425 88° East 473 544 24,600 -2,921 Descending FlightAware ADS-B
Tue 08:01:30 PM 44.6315 -121.9373 89° East 453 521 23,400 -2,143 Descending FlightAware ADS-B
Tue 08:02:04 PM 44.6330 -121.8372 89° East 442 509 22,100 -2,156 Descending FlightAware ADS-B
Tue 08:02:34 PM 44.6343 -121.7518 89° East 433 498 21,100 -2,229 Descending FlightAware ADS-B
Tue 08:03:14 PM 44.6354 -121.6416 89° East 424 488 19,500 -3,117 Descending FlightAware ADS-B
Tue 08:03:51 PM 44.6370 -121.5418 89° East 437 503 17,100 -3,455 Descending FlightAware ADS-B
Tue 08:04:20 PM 44.6381 -121.4584 84° East 427 491 15,700 -1,714 Descending FlightAware ADS-B
Tue 08:04:54 PM 44.6448 -121.3675 48° Northeast 399 459 15,300 -771 Descending FlightAware ADS-B
Tue 08:05:30 PM 44.6856 -121.3033 19° North 340 391 14,800 -455 Descending FlightAware ADS-B
Tue 08:06:00 PM 44.7290 -121.2823 18° North 320 368 14,800  Level FlightAware ADS-B
Tue 08:06:34 PM 44.7765 -121.2606 18° North 322 371 14,800  Level FlightAware ADS-B
Tue 08:07:14 PM 44.8342 -121.2341 13° North 322 371 14,800 79 Level FlightAware ADS-B
Tue 08:07:50 PM 44.8848 -121.2174 10° North 310 357 14,900  Climbing FlightAware ADS-B
Tue 08:08:24 PM 44.9354 -121.2050 16° North 319 367 14,800 -81 Descending FlightAware ADS-B
Tue 08:09:04 PM 44.9932 -121.1821 16° North 316 364 14,800  Level FlightAware ADS-B
Tue 08:09:42 PM 45.0461 -121.1603 17° North 323 372 14,800  Level FlightAware ADS-B
Tue 08:10:11 PM 45.0882 -121.1426 17° North 301 346 14,800  Level FlightAware ADS-B
Tue 08:10:45 PM 45.1298 -121.1244 19° North 252 290 14,800  Level FlightAware ADS-B
Tue 08:11:24 PM 45.1715 -121.1041 20° North 221 254 14,800  Level FlightAware ADS-B
Tue 08:11:55 PM 45.2001 -121.0895 20° North 224 258 14,800  Level FlightAware ADS-B
Tue 08:12:31 PM 45.2359 -121.0709 21° North 209 241 14,800  Level FlightAware ADS-B
Tue 08:13:14 PM 45.2713 -121.0512 22° Northeast 179 206 14,800  Level FlightAware ADS-B
Tue 08:13:52 PM 45.3006 -121.0346 22° Northeast 178 205 14,800  Level FlightAware ADS-B
Tue 08:14:24 PM 45.3254 -121.0203 22° Northeast 174 200 14,800  Level FlightAware ADS-B
Tue 08:15:11 PM 45.3591 -121.0005 23° Northeast 162 186 14,800  Level FlightAware ADS-B
Tue 08:15:42 PM 45.3804 -120.9877 22° Northeast 159 183 14,800  Level FlightAware ADS-B
Tue 08:16:21 PM 45.4103 -120.9706 20° North 192 221 14,800  Level FlightAware ADS-B
Tue 08:17:01 PM 45.4465 -120.9518 19° North 210 242 14,800  Level FlightAware ADS-B
Tue 08:17:34 PM 45.4781 -120.9361 18° North 223 257 14,800  Level FlightAware ADS-B
Tue 08:18:14 PM 45.5222 -120.9159 17° North 269 310 14,800  Level FlightAware ADS-B
Tue 08:18:51 PM 45.5666 -120.8960 18° North 258 297 14,800  Level FlightAware ADS-B
Tue 08:19:24 PM 45.6047 -120.8782 18° North 254 292 14,800  Level FlightAware ADS-B
Tue 08:20:04 PM 45.6498 -120.8573 18° North 259 298 14,800  Level FlightAware ADS-B
Tue 08:20:34 PM 45.6826 -120.8416 19° North 236 272 14,800  Level FlightAware ADS-B
Tue 08:21:11 PM 45.7175 -120.8239 21° North 191 220 14,800 -75 Level FlightAware ADS-B
Tue 08:21:54 PM 45.7482 -120.8070 17° North 139 160 14,700 -300 Descending FlightAware ADS-B
Tue 08:22:31 PM 45.7698 -120.7978 16° North 154 177 14,400 136 Descending FlightAware ADS-B
Tue 08:23:22 PM 45.8104 -120.7812 20° North 169 194 14,900 225 Climbing FlightAware ADS-B
Tue 08:23:51 PM 45.8311 -120.7703 22° Northeast 160 184 14,700 -194 Descending FlightAware ADS-B
Tue 08:24:24 PM 45.8582 -120.7544 20° North 189 217 14,700 82 Level FlightAware ADS-B
Tue 08:25:04 PM 45.8932 -120.7356 20° North 204 235 14,800  Climbing FlightAware ADS-B
Tue 08:25:31 PM 45.9152 -120.7240 20° North 194 223 14,700 86 Descending FlightAware ADS-B
Tue 08:26:14 PM 45.9559 -120.7028 18° North 243 280 14,900 72 Climbing FlightAware ADS-B
Tue 08:26:54 PM 46.0024 -120.6806 19° North 238 274 14,800 -154 Descending FlightAware ADS-B
Tue 08:27:32 PM 46.0380 -120.6628 19° North 207 238 14,700 -522 Descending FlightAware ADS-B
Tue 08:28:03 PM 46.0637 -120.6498 19° North 188 216 14,200 -667 Descending FlightAware ADS-B
Tue 08:28:44 PM 46.0993 -120.6322 18° North 188 216 13,900 -222 Descending FlightAware ADS-B
Tue 08:29:24 PM 46.1375 -120.6139 17° North 222 255 13,900 -593 Level FlightAware ADS-B
Tue 08:30:05 PM 46.1797 -120.5948 16° North 236 272 13,100 -1,151 Descending FlightAware ADS-B
Tue 08:30:37 PM 46.2143 -120.5800 29° Northeast 238 274 12,500 -977 Descending FlightAware ADS-B
Tue 08:30:48 PM 46.2231 -120.5729 41° Northeast 235 270 12,400 -837 Descending FlightAware ADS-B
Tue 08:31:20 PM 46.2437 -120.5474 41° Northeast 241 277 11,900 -1,075 Descending FlightAware ADS-B
Tue 08:32:34 PM 46.3089 -120.4639 41° Northeast 236 272 10,500 -1,254 Descending Seattle Center
Tue 08:33:34 PM 46.3639 -120.3944 44° Northeast 258 297 9,100 -1,041 Descending Seattle Center
Tue 08:34:35 PM 46.4075 -120.3333 46° Northeast 214 246 8,400 -836 Descending Seattle Center
Tue 08:35:36 PM 46.4422 -120.2811 109° East 188 216 7,400 -1,230 Descending Seattle Center
Tue 08:36:37 PM 46.4275 -120.2178 69° East 177 204 5,900 -1,180 Descending Seattle Center
Tue 08:37:38 PM 46.4425 -120.1597 69° East 185 213 5,000 -885 Descending Seattle Center

Login

Don't have an account? Register now (free) for customized features, flight alerts, and more!